Regional Weather Roundup
Issued by NWS Newport/Morehead, NC

Current Version | Previous Version | Graphics & Text | Print | Product List | Glossary Off
Versions: 1 2 3 4 5 6 7 8 9 10 11 12 13 14 15 16 17 18 19 20 21 22 23 24 25 26 27 28 29 30 31 32 33 34 35 36 37 38 39 40 41 42 43 44 45 46 47 48 49 50

000
ASUS42 KMHX 141425
RWRMHX
WEATHER ROUNDUP FOR EASTERN NORTH CAROLINA
NATIONAL WEATHER SERVICE NEWPORT/MOREHEAD CITY NC
900 AM EST THU DEC 14 2017

NOTE: "FAIR" INDICATES FEW OR NO CLOUDS BELOW 12,000 FEET
WITH NO SIGNIFICANT WEATHER AND/OR OBSTRUCTIONS TO VISIBILITY

NCZ015>017-031-032-045>047-102-103-141500-
NORTH COAST

CITY           SKY/WX    TMP DP  RH WIND       PRES   REMARKS
EDENTON        SUNNY     44  28  52 W12G17    29.81R
ELIZABETH CITY SUNNY     43  27  53 W15       29.78R
KITTY HAWK     SUNNY     42  26  53 W10G16    29.77R
MANTEO         SUNNY     44  26  49 W13       29.80R

$$

NCZ045>047-081-094-103-104-141500-
CENTRAL COAST

CITY           SKY/WX    TMP DP  RH WIND       PRES   REMARKS
FRISCO         SUNNY     48  33  56 W12G24    29.81R

$$

NCZ095-097-098-100-101-141500-
SOUTHERN COAST

CITY           SKY/WX    TMP DP  RH WIND       PRES   REMARKS
BEAUFORT       SUNNY     47  30  51 W12       29.84R
CEDAR ISLAND   NOT AVBL
JACKSONVILLE   SUNNY     45  27  49 W13       29.84R
PINEY ISLAND     N/A    N/A N/A N/A W15G22    29.83R
WILMINGTON     SUNNY     46  27  47 W14       29.87R


$$

NCZ011>013-027>030-043-044-078>080-089-090>093-098-141500-
COASTAL PLAIN

CITY           SKY/WX    TMP DP  RH WIND       PRES   REMARKS
AHOSKIE        SUNNY     40  25  54 CALM      29.80R
CLINTON        SUNNY     42  27  55 W8        29.86R
ELIZABETHTOWN  NOT AVBL
GOLDSBORO      SUNNY     43  23  45 SW12      29.81R
GREENVILLE     SUNNY     43  25  49 W8        29.84R
HAVELOCK       SUNNY     46  27  47 W13       29.84R
KENANSVILLE    SUNNY     43  25  49 SW10      29.84R
KINSTON        SUNNY     43  25  49 SW13      29.83R
NEW BERN       SUNNY     44  26  49 SW13G18   29.84R
RICHLANDS      SUNNY     43  27  53 SW10G18   29.85R
ROCKY MOUNT    SUNNY     40  24  53 SW9       29.81R
WASHINGTON     SUNNY     43  24  48 W8G16     29.82R
WHITEVILLE     SUNNY     44  27  51 SW8       29.88R

$$

AMZ130-135-150-152-154-156-158-170-250-252-270-ANZ085-086-088-633-658-670-141500-
MARINE OBSERVATIONS

STATION/POSITION TIME  TEMP    WIND        PRES    WAVE   SWELL
                       AIR SEA DIR/SP/G            HT/PER HT/PER
                 (UTC) (F)     (DEG/KT/KT) (MB)    (FT/S) (FT/S)
CHESAPEAKE LIGHT NOT AVBL
64 E VA BEACH    1350   50 60  260/ 25/ 31 1006.5    8/ 7
DUCK             1400   43 52  260/ 16/ 21 1008.0
2 E DUCK         1330      55                N/A     2/ 3
OREGON INLET     1400   43 41  240/ 16/ 18 1008.7
13E OREGON INLT  1348      58                N/A     5/ 4   2/ 7
HATTERAS CG      1400   47 50  260/ 18/ 22 1009.3
DIAMOND BUOY     1410   56 73  260/ 21/ 27 1010.0
CAPE LOOKOUT     1400          260/ 17/ 21 1010.8
BEAUFORT LAB     1400   46 51  260/  7/ 13 1010.4
30 SE NEW RVR IN 1408   53 64  250/ 17/ 23 1010.9
30 SE NEW RVR IN 1330      64                N/A     8/ 7
27 SE WRIGHTSVLE 1408   53 65  260/ 19/ 27 1011.8
5 SE WRIGHTSVLE  1408   48 56  270/ 16/ 21 1010.8
225 S CAPE HAT   1350   69 74  250/ 23/ 29 1012.5    9/ 7   2/27
41 SE CHARLESTON 1410      73  270/ 19/ 25 1013.6

$$




USA.gov is the U.S. government's official web portal to all federal, state and local government web resources and services.